Wind_Speed
48 52 58 62 69 77 84 91 96 88 81 68 49 29 18 23 27 26 27 25 37 61 68 74 73 71 69 69 67 70 63 62 64 63 60 58 52 46 43 39 40 43 46 45 42 43 45
49 53 60 65 71 78 84 92 94 89 81 58 38 24 24 22 21 27 27 25 26 33 56 70 74 75 74 71 69 77 69 65 65 64 62 60 55 49 45 43 42 42 49 48 46 44 45
50 56 62 65 71 78 84 92 93 90 78 51 31 21 22 24 21 22 25 22 23 22 32 59 74 78 76 73 71 75 73 68 68 66 64 61 58 56 51 48 44 45 52 52 50 47 46
50 55 62 66 71 79 83 91 92 91 75 47 27 21 21 18 18 21 21 22 19 16 19 36 68 79 76 76 75 74 76 71 69 69 65 63 62 60 56 53 50 51 54 55 52 49 49
51 56 63 67 72 79 84 92 93 92 76 47 27 19 20 17 17 16 18 19 17 14 16 18 54 76 79 79 76 75 74 73 72 69 67 66 66 65 62 58 56 57 56 54 52 50 50
52 57 63 69 72 79 84 92 93 92 76 50 28 20 19 16 15 15 15 16 16 15 13 17 36 70 78 80 78 75 74 76 74 72 71 70 69 69 67 64 63 59 57 54 53 50 50
54 59 65 70 73 78 83 92 94 92 79 54 30 21 18 13 13 13 14 13 15 14 16 11 25 52 71 78 70 77 75 78 76 75 74 72 71 70 64 63 60 53 52 49 49 49 48
56 60 65 69 73 77 82 90 95 93 82 59 35 17 15 10 10 9 11 13 13 13 13 14 16 36 64 77 76 82 69 74 80 77 76 74 71 67 66 65 60 56 55 52 51 51 52
56 59 63 68 72 77 81 87 94 92 84 63 38 16 8 4 6 7 6 9 10 12 12 16 21 28 56 78 79 76 67 73 75 77 76 74 71 68 67 66 63 60 58 56 54 51 54
56 59 62 68 72 75 80 85 90 92 87 68 40 16 4 2 2 4 5 9 9 11 15 21 25 29 48 71 76 73 73 67 72 80 75 74 74 70 67 66 63 61 59 58 57 57 57
55 58 62 66 71 74 79 83 87 91 89 71 43 17 9 7 2 3 5 8 10 13 15 13 13 24 45 61 55 54 79 71 66 73 82 78 76 71 68 64 63 63 60 59 58 59 60
55 58 61 65 69 71 76 79 85 89 89 73 48 21 9 9 6 4 6 8 9 12 11 8 10 20 36 57 56 54 60 74 67 66 76 75 72 71 67 62 61 61 59 59 60 59 65
55 57 60 64 67 71 74 78 82 86 87 75 53 27 12 9 10 8 6 6 6 10 4 5 9 19 43 53 48 52 64 68 71 66 68 80 74 69 67 63 59 58 56 58 62 66 70
54 56 59 62 64 68 72 75 79 83 86 79 58 35 16 12 12 11 9 7 8 11 7 6 14 20 56 45 45 47 58 58 76 66 70 74 82 75 70 67 67 67 63 66 68 70 72
53 55 58 60 62 65 69 71 75 79 82 80 65 43 23 15 15 16 14 10 10 8 4 7 5 21 52 51 45 49 52 60 64 80 69 70 75 74 71 66 67 66 66 62 64 65 68
51 53 55 58 61 64 66 69 71 75 78 80 71 55 33 21 17 18 17 16 13 8 6 5 5 17 36 54 44 53 56 48 66 74 74 67 67 72 68 68 66 66 61 64 65 66 68
50 50 51 54 58 60 63 66 67 71 75 77 74 58 45 26 20 19 20 18 18 14 8 3 5 17 36 52 44 42 41 43 46 58 64 64 64 66 71 73 69 70 69 66 62 65 66
52 51 50 51 55 58 61 62 64 67 71 74 73 62 51 27 19 19 21 23 26 21 10 5 8 5 18 39 44 42 35 53 54 51 48 57 62 63 66 68 69 66 64 67 68 69 68
52 51 50 49 52 55 57 60 61 63 66 71 72 67 54 34 24 20 20 22 23 24 18 5 12 12 11 26 40 41 29 46 44 43 51 56 58 61 61 65 68 70 65 64 62 64 68
51 49 48 48 49 52 55 57 58 60 62 66 69 68 61 43 26 18 18 20 23 24 25 11 9 19 15 23 40 36 37 42 44 56 44 46 59 62 65 67 62 66 72 68 65 68 67
52 48 47 46 47 48 51 54 56 57 58 61 64 66 64 61 42 23 13 13 18 21 22 17 9 12 19 18 33 35 33 38 43 46 47 52 49 56 61 61 60 59 60 66 70 64 67
56 48 47 44 45 45 47 50 53 55 55 56 60 63 64 61 57 39 19 13 16 20 16 12 10 12 23 17 23 40 31 34 44 43 46 53 42 48 53 57 62 60 60 59 60 64 66
57 50 47 44 44 44 44 47 49 53 53 53 55 59 62 62 59 48 33 15 12 16 20 13 10 11 21 25 21 29 43 40 31 44 41 42 51 46 50 50 57 63 64 62 62 63 66
58 51 47 42 43 43 42 44 45 49 51 52 52 56 58 60 60 56 43 26 15 13 17 13 14 15 23 31 31 24 31 47 40 33 36 45 47 48 45 48 47 59 59 58 55 58 61
57 52 46 43 43 44 42 41 43 46 49 49 49 51 53 56 58 58 53 37 22 17 15 15 13 15 14 28 43 38 30 32 40 48 49 43 44 38 47 49 49 49 46 52 59 61 54
54 53 46 43 43 43 41 40 40 43 46 47 48 48 50 53 55 56 55 49 35 21 21 21 20 13 14 14 27 36 36 36 39 43 42 50 56 52 50 44 44 44 29 36 44 59 46
51 53 47 42 42 40 39 40 40 41 44 46 46 47 48 49 51 54 54 53 49 39 20 17 19 19 15 8 15 27 35 28 37 27 39 40 39 51 47 47 40 37 43 46 53 55 50
49 51 50 44 41 39 39 40 40 41 43 43 44 46 46 46 47 50 52 53 52 49 42 20 16 18 13 11 4 19 29 36 28 33 36 31 33 40 48 49 45 48 53 50 43 37 44
47 48 46 45 39 39 39 39 40 41 43 42 43 44 44 45 45 46 49 50 51 51 48 42 19 15 13 7 9 17 26 26 25 21 35 32 33 34 34 42 52 46 44 46 51 45 43
Wind_Direction
337 336 338 338 339 341 343 345 344 343 339 334 324 309 284 270 248 251 258 259 241 229 215 215 214 213 211 211 206 201 205 203 205 206 206 206 205 204 202 197 193 191 191 193 189 190 195
337 337 340 342 343 344 345 346 346 346 341 337 326 312 276 277 271 254 258 263 260 244 226 208 208 210 209 209 204 205 204 203 203 205 206 206 203 204 203 198 196 191 194 194 193 191 196
338 339 342 344 346 346 347 348 350 349 343 338 325 311 297 278 273 259 254 260 261 264 240 218 209 207 207 207 202 207 203 203 203 204 205 206 205 205 201 201 193 191 199 197 197 191 195
340 341 344 346 348 350 350 351 353 351 347 339 326 315 295 289 268 260 258 256 255 262 259 230 208 205 205 204 201 206 202 205 203 205 204 204 205 206 203 202 198 194 201 200 197 194 195
342 342 345 349 349 353 354 354 356 355 350 341 328 308 299 284 278 266 255 254 251 255 261 255 216 202 202 203 198 205 205 202 205 204 204 205 204 205 204 203 202 198 202 201 200 199 196
344 344 347 350 352 356 357 358 360 358 353 343 323 313 295 283 273 271 259 248 247 242 252 253 224 203 202 202 200 202 207 199 204 206 205 205 205 205 204 204 203 202 201 202 204 202 199
345 346 348 350 353 356 360 0 3 1 357 348 332 307 294 283 278 269 258 244 245 241 255 261 222 208 204 202 207 199 209 202 203 205 208 207 207 207 206 207 207 207 206 209 207 209 208
347 349 351 352 355 359 2 3 5 4 1 357 342 312 299 274 276 280 258 239 237 243 246 250 233 207 204 199 203 200 206 209 200 203 207 209 208 208 209 210 212 208 208 209 210 213 216
350 350 352 354 358 1 5 5 6 6 5 3 356 331 300 265 270 292 269 236 236 237 243 257 246 211 206 202 202 197 201 208 206 202 206 211 206 208 211 211 212 211 210 211 213 215 221
349 351 354 357 359 2 6 7 7 9 8 7 8 10 75 336 252 313 278 249 240 250 268 269 255 220 207 206 204 202 199 206 207 203 204 210 210 209 210 212 212 215 212 215 215 218 221
351 352 354 356 359 2 6 9 9 11 10 11 13 31 39 2 294 276 296 257 254 272 291 242 235 221 213 198 186 209 204 204 209 208 204 205 211 211 210 213 214 215 214 217 219 220 223
352 354 354 357 360 3 8 11 11 12 12 13 14 23 33 8 346 329 307 286 269 304 289 252 202 217 211 193 187 203 202 207 208 207 209 209 210 209 212 212 215 218 216 217 220 222 225
353 353 355 358 1 4 9 11 12 13 14 14 15 18 20 7 354 345 338 330 314 337 346 264 207 200 182 174 189 204 207 206 209 204 208 207 211 210 210 210 212 214 215 218 221 223 226
353 353 355 359 2 5 9 12 14 14 16 16 16 14 15 10 11 357 329 318 329 335 308 228 196 193 185 158 170 183 186 208 210 211 214 213 208 210 210 213 219 218 216 219 222 224 228
353 354 355 358 2 5 9 13 15 16 17 17 19 18 10 2 7 6 2 341 336 354 349 267 173 198 196 165 179 174 194 190 215 211 212 216 217 212 212 211 215 216 218 222 226 229 234
353 354 354 358 1 4 9 13 15 16 17 18 20 20 27 24 16 21 16 9 12 19 3 269 152 193 197 191 176 187 193 201 207 213 211 215 219 216 215 213 213 217 221 220 223 227 234
351 352 354 357 0 4 8 11 14 17 18 19 20 20 26 35 39 26 17 11 8 13 14 314 173 171 185 192 184 190 192 200 209 214 216 217 218 220 218 215 216 213 215 219 227 232 234
351 351 352 356 360 3 6 10 13 15 18 19 19 20 21 28 32 31 31 25 27 27 17 282 208 189 192 203 199 186 200 198 198 207 209 215 219 223 224 223 217 219 221 222 222 226 229
353 351 350 355 360 2 5 8 11 14 17 19 19 20 21 17 19 23 25 26 24 29 25 300 249 229 226 196 205 200 186 194 199 205 211 213 216 222 224 225 220 218 218 222 227 232 235
354 352 350 352 359 0 4 7 10 12 15 19 20 21 21 19 12 7 15 11 14 17 18 8 277 244 220 210 208 203 199 200 199 197 206 217 219 221 227 229 230 224 221 222 224 229 233
353 352 351 352 356 1 3 6 8 10 13 17 18 20 22 22 21 15 8 7 15 11 18 4 325 253 230 220 214 201 186 207 199 201 204 208 223 222 224 227 230 234 235 228 226 228 234
353 353 352 352 354 359 3 6 6 8 10 14 16 18 21 21 21 19 17 11 5 5 11 24 332 283 233 234 227 219 220 196 211 202 204 206 216 227 224 225 230 231 230 232 234 234 238
352 353 353 353 354 358 2 5 6 7 8 11 14 16 18 19 21 19 16 10 10 2 2 357 354 311 255 243 233 224 222 206 203 210 207 209 213 222 229 229 228 231 231 233 233 232 232
352 353 353 354 354 356 0 3 5 6 6 8 11 13 15 18 19 19 18 5 348 353 2 8 358 323 272 252 236 230 223 221 214 204 218 215 219 223 227 233 236 234 231 234 236 238 238
351 353 355 356 355 354 357 2 3 4 4 6 9 11 13 15 17 18 18 12 348 332 338 6 355 350 286 255 235 228 231 232 232 237 238 230 223 224 232 229 232 237 234 236 239 239 243
352 353 356 359 357 353 353 359 0 1 2 4 6 9 10 12 16 17 17 17 9 336 321 330 347 337 332 272 237 227 229 232 234 233 234 235 239 238 244 247 241 228 236 229 234 236 239
351 352 354 358 357 353 352 356 357 357 358 2 3 6 7 8 12 14 15 15 15 12 342 304 325 337 344 341 213 210 216 227 233 237 233 228 231 237 242 242 239 233 230 236 237 243 235
348 351 351 355 356 353 351 352 354 353 355 359 359 1 4 5 7 10 12 13 13 14 10 342 313 331 335 354 208 186 193 215 226 229 220 230 236 235 230 234 243 245 241 235 236 232 238
342 348 350 351 353 351 348 347 350 350 351 354 357 358 359 2 3 5 8 12 13 13 11 8 334 301 319 292 229 196 199 190 200 206 232 239 234 233 237 237 232 245 243 238 235 235 238
Height
5746 5736 5725 5712 5698 5682 5662 5641 5618 5594 5571 5552 5540 5532 5528 5526 5526 5528 5529 5530 5530 5535 5548 5563 5580 5595 5610 5625 5640 5649 5661 5671 5682 5695 5705 5714 5723 5731 5738 5745 5749 5757 5761 5766 5772 5780 5787
5741 5730 5718 5705 5690 5673 5653 5632 5607 5583 5558 5540 5530 5524 5521 5520 5521 5521 5522 5523 5524 5525 5532 5547 5563 5577 5592 5614 5628 5638 5651 5663 5674 5686 5696 5705 5716 5726 5732 5739 5745 5755 5756 5761 5767 5774 5782
5735 5725 5712 5698 5683 5665 5645 5624 5598 5573 5548 5532 5524 5520 5516 5515 5515 5516 5516 5518 5519 5520 5523 5531 5546 5561 5579 5602 5617 5627 5642 5654 5665 5676 5686 5698 5709 5717 5724 5732 5739 5746 5750 5754 5761 5767 5776
5730 5720 5706 5692 5676 5658 5638 5616 5591 5564 5540 5525 5518 5514 5511 5509 5509 5510 5510 5512 5515 5517 5517 5521 5533 5548 5570 5585 5602 5618 5632 5645 5655 5666 5676 5686 5698 5706 5716 5723 5730 5735 5742 5747 5756 5763 5771
5725 5714 5701 5687 5671 5653 5632 5609 5584 5557 5533 5519 5512 5508 5506 5505 5505 5505 5506 5508 5511 5513 5515 5516 5524 5539 5557 5574 5597 5608 5619 5634 5645 5655 5665 5674 5686 5697 5706 5714 5722 5726 5734 5744 5751 5758 5766
5722 5710 5697 5682 5666 5648 5627 5604 5578 5552 5528 5512 5506 5502 5500 5499 5500 5501 5502 5503 5507 5509 5512 5513 5516 5536 5548 5563 5581 5596 5607 5618 5632 5643 5652 5661 5675 5686 5696 5704 5710 5720 5731 5740 5748 5756 5763
5719 5706 5693 5678 5661 5643 5623 5600 5575 5550 5525 5507 5498 5496 5495 5495 5496 5497 5499 5501 5505 5508 5509 5511 5514 5521 5530 5549 5566 5583 5596 5605 5617 5631 5645 5654 5667 5681 5698 5705 5712 5726 5734 5742 5749 5753 5758
5715 5703 5690 5674 5658 5640 5621 5598 5574 5550 5525 5505 5493 5489 5490 5491 5493 5495 5496 5498 5501 5504 5505 5505 5507 5511 5520 5535 5554 5571 5585 5595 5608 5625 5634 5645 5663 5679 5687 5698 5709 5719 5726 5734 5741 5745 5750
5712 5700 5687 5672 5658 5640 5620 5598 5574 5550 5526 5505 5491 5485 5486 5489 5491 5493 5494 5496 5498 5499 5501 5501 5500 5505 5513 5526 5543 5560 5575 5589 5603 5611 5628 5645 5662 5670 5678 5688 5700 5710 5719 5727 5734 5739 5741
5709 5698 5686 5672 5657 5639 5620 5599 5575 5552 5528 5506 5492 5486 5487 5490 5492 5491 5493 5494 5496 5496 5498 5497 5497 5500 5505 5516 5540 5554 5565 5582 5593 5609 5622 5637 5645 5657 5669 5680 5694 5704 5714 5720 5726 5730 5734
5708 5697 5685 5670 5656 5640 5621 5600 5578 5555 5530 5508 5496 5490 5491 5490 5491 5492 5492 5493 5494 5494 5493 5493 5492 5495 5501 5520 5542 5550 5565 5574 5586 5601 5613 5630 5636 5650 5661 5676 5685 5693 5703 5711 5717 5721 5725
5707 5694 5682 5668 5654 5639 5621 5601 5580 5558 5535 5513 5500 5495 5494 5493 5492 5492 5491 5492 5493 5493 5490 5490 5490 5493 5501 5516 5534 5544 5556 5570 5583 5593 5605 5616 5627 5638 5656 5665 5673 5682 5693 5701 5707 5712 5713
5705 5693 5681 5669 5655 5640 5623 5605 5584 5562 5540 5520 5506 5499 5497 5495 5495 5493 5492 5492 5493 5490 5490 5491 5490 5494 5502 5517 5530 5539 5550 5558 5569 5581 5591 5604 5618 5634 5644 5650 5660 5671 5685 5693 5697 5697 5700
5703 5692 5680 5668 5654 5640 5624 5607 5589 5569 5547 5528 5512 5503 5499 5498 5496 5494 5492 5492 5491 5490 5490 5490 5492 5493 5500 5516 5525 5533 5544 5554 5563 5578 5591 5597 5608 5620 5635 5646 5659 5667 5673 5677 5681 5688 5690
5702 5691 5680 5667 5655 5641 5626 5610 5592 5575 5555 5536 5519 5509 5503 5500 5498 5495 5494 5492 5490 5490 5489 5490 5493 5493 5496 5510 5521 5531 5539 5552 5560 5571 5582 5593 5606 5620 5628 5640 5649 5653 5660 5678 5678 5683 5685
5699 5689 5678 5667 5656 5644 5628 5613 5598 5580 5562 5544 5528 5515 5506 5502 5500 5498 5497 5494 5491 5490 5490 5492 5495 5496 5501 5509 5519 5529 5537 5547 5557 5567 5580 5591 5602 5611 5621 5629 5635 5647 5664 5661 5666 5674 5677
5698 5686 5676 5667 5655 5643 5631 5616 5601 5586 5569 5551 5536 5522 5509 5507 5504 5503 5500 5496 5494 5492 5492 5493 5497 5499 5503 5510 5518 5528 5538 5548 5558 5565 5573 5582 5592 5602 5609 5612 5629 5635 5639 5653 5665 5669 5673
5697 5687 5677 5666 5656 5645 5633 5620 5605 5590 5576 5560 5543 5530 5517 5512 5510 5507 5504 5500 5496 5494 5494 5495 5498 5501 5505 5509 5516 5527 5533 5537 5548 5555 5562 5573 5582 5590 5601 5613 5624 5630 5642 5646 5648 5657 5664
5695 5687 5678 5668 5657 5645 5634 5623 5610 5595 5581 5567 5552 5536 5524 5516 5511 5510 5507 5504 5501 5498 5496 5498 5500 5502 5504 5510 5517 5522 5529 5534 5542 5549 5557 5564 5572 5579 5589 5595 5608 5615 5630 5640 5652 5654 5654
5695 5684 5676 5668 5658 5646 5636 5625 5613 5599 5586 5573 5560 5547 5533 5522 5515 5512 5510 5507 5503 5501 5499 5500 5501 5504 5506 5508 5514 5520 5526 5531 5539 5547 5553 5558 5565 5573 5581 5598 5612 5613 5622 5630 5638 5638 5646
5693 5683 5674 5667 5658 5647 5636 5626 5616 5604 5591 5580 5567 5555 5541 5531 5522 5515 5512 5510 5508 5504 5502 5500 5501 5503 5505 5508 5512 5517 5524 5529 5538 5546 5551 5558 5562 5570 5580 5588 5594 5606 5615 5622 5623 5635 5634
5693 5682 5673 5665 5656 5648 5637 5629 5617 5607 5597 5584 5572 5561 5548 5537 5526 5518 5514 5512 5509 5507 5506 5503 5501 5500 5505 5509 5513 5518 5521 5528 5532 5541 5545 5552 5559 5564 5571 5579 5585 5592 5600 5609 5619 5628 5632
5692 5682 5672 5664 5656 5648 5638 5629 5619 5610 5600 5589 5578 5566 5554 5543 5532 5522 5517 5513 5511 5508 5505 5502 5499 5497 5500 5506 5511 5514 5519 5524 5530 5536 5542 5548 5553 5559 5564 5571 5574 5578 5591 5602 5611 5614 5623
5691 5681 5671 5661 5655 5647 5639 5630 5619 5610 5601 5593 5582 5571 5560 5550 5539 5530 5518 5513 5510 5508 5505 5502 5498 5496 5497 5500 5506 5511 5515 5521 5525 5532 5538 5544 5548 5554 5559 5564 5564 5577 5584 5593 5598 5607 5614
5690 5680 5670 5660 5654 5647 5639 5631 5622 5612 5604 5595 5586 5576 5565 5555 5544 5533 5523 5514 5509 5506 5505 5502 5501 5499 5495 5493 5498 5505 5510 5516 5522 5525 5533 5538 5542 5547 5549 5556 5560 5563 5574 5585 5589 5600 5606
5687 5679 5669 5659 5652 5646 5638 5631 5623 5613 5604 5597 5588 5579 5569 5560 5549 5539 5530 5520 5511 5504 5501 5498 5498 5494 5491 5488 5489 5496 5505 5513 5517 5521 5526 5530 5536 5539 5543 5547 5550 5569 5572 5573 5574 5575 5593
5683 5676 5668 5657 5650 5643 5637 5631 5623 5614 5604 5596 5589 5581 5572 5563 5553 5543 5534 5526 5514 5505 5501 5499 5496 5492 5488 5485 5485 5491 5500 5507 5511 5515 5519 5523 5528 5530 5534 5539 5547 5554 5561 5563 5559 5574 5583
5680 5671 5666 5657 5649 5643 5636 5629 5622 5614 5605 5596 5589 5582 5574 5565 5557 5547 5538 5529 5519 5509 5501 5497 5495 5491 5488 5486 5486 5489 5494 5498 5504 5508 5511 5515 5517 5520 5525 5530 5539 5545 5548 5551 5557 5561 5566
5679 5669 5662 5656 5648 5641 5634 5628 5621 5614 5605 5596 5589 5582 5574 5566 5559 5550 5540 5531 5522 5513 5504 5496 5492 5490 5489 5487 5487 5489 5491 5493 5496 5501 5502 5507 5510 5513 5517 5521 5529 5530 5534 5540 5546 5551 5554